Location: Ostrava
(49.8330°N, 18.2830°E)
Time: 09:03:49
(UTC+02:00)

Cosmos 2219 Rocket - Visible Passes

Search period start: 25 October 2014 00:00
Search period end: 03 November 2014 23:00
Orbit: 827 x 848 km, 71.0° (Epoch: 23 October)

Date Brightness Start Highest point End Pass type
(mag) Time Alt. Az. Time Alt. Az. Time Alt. Az.
25 Oct 3.7 03:40:54 31° E 03:40:54 31° E 03:44:12 10° SE visible
25 Oct 2.6 05:22:46 38° WSW 05:22:46 38° WSW 05:27:52 10° S visible
25 Oct 2.8 18:28:48 10° S 18:33:51 35° ESE 18:38:56 10° NE visible
25 Oct 3.1 20:12:17 10° SW 20:17:42 46° NW 20:23:05 10° NNE visible
25 Oct 4.8 22:00:12 10° WNW 22:03:11 14° NNW 22:04:50 13° N visible
26 Oct 4.6 02:27:05 14° ESE 02:27:05 14° ESE 02:27:52 10° ESE visible
26 Oct 3.3 04:08:57 27° SSW 04:08:57 27° SSW 04:11:43 10° S visible
26 Oct 2.9 17:12:40 10° SSE 17:17:37 33° ESE 17:22:38 10° NE visible
26 Oct 3.0 18:55:57 10° SW 19:01:25 49° NW 19:06:56 10° NNE visible
26 Oct 4.8 20:43:42 10° WNW 20:46:50 15° NNW 20:49:10 12° N visible
27 Oct 4.3 03:55:03 13° S 03:55:03 13° S 03:55:33 10° S visible
27 Oct 2.9 18:39:38 10° SW 18:45:08 52° NW 18:50:41 10° NNE visible
27 Oct 4.8 20:27:12 10° WNW 20:30:30 15° NNW 20:33:24 11° N visible
28 Oct 2.9 18:23:19 10° SW 18:28:51 55° NW 18:34:26 10° NNE visible
28 Oct 4.7 20:10:43 10° WNW 20:14:09 16° NNW 20:17:35 10° N visible
29 Oct 2.8 18:07:01 10° SW 18:12:34 59° NW 18:18:11 10° NNE visible
29 Oct 4.7 19:54:15 10° WNW 19:57:48 17° NNW 20:01:23 10° N visible
30 Oct 2.7 17:50:42 10° SW 17:56:17 62° WNW 18:01:56 10° NNE visible
30 Oct 4.6 19:37:47 10° WNW 19:41:28 17° NNW 19:45:11 10° N visible
31 Oct 2.6 17:34:25 10° SW 17:40:01 66° WNW 17:45:41 10° NNE visible
31 Oct 4.6 19:21:19 10° WNW 19:25:08 18° NW 19:28:58 10° N visible
01 Nov 2.5 17:18:07 10° SW 17:23:44 70° WNW 17:29:26 10° NNE visible
01 Nov 4.5 19:04:51 10° W 19:08:47 19° NW 19:12:45 10° N visible
02 Nov 2.5 17:01:50 10° SW 17:07:28 74° WNW 17:13:10 10° NNE visible
02 Nov 4.4 18:48:24 10° W 18:52:27 20° NW 18:56:32 10° N visible
03 Nov 4.4 18:31:58 10° W 18:36:07 21° NW 18:40:19 10° N visible
